Hourly Data Report for October 27, 2016

All times are specified in Local Standard Time (LST). Add 1 hour to adjust for Daylight Saving Time where and when it is observed.

OTTAWA INTL A
ONTARIO

45°19'00.000" N
75°40'00.000" W
114.90 m
6106001
71628
YOW

Download Data

Hourly Data (October 2016)
Hourly Data Report for October 27, 2016
Temp Definition
°C
Dew Point Temp Definition
°C
Rel Hum Definition
%
Wind Dir Definition
10's deg

Wind Spd Definition
km/h
Visibility Definition
km
Stn Press Definition
kPa
Hmdx Definition


Wind Chill Definition


Weather Definition


TIME
00:00 Legend Double Dagger -1.8 -6.6 70 3 9 24.1 101.89   -5 LegendNANA
01:00 Legend Double Dagger -2.3 -5.8 77 5 10 24.1 101.85   -6 Mostly Cloudy
02:00 Legend Double Dagger -2.6 -5.9 78 5 9 24.1 101.83   -6 LegendNANA
03:00 Legend Double Dagger -2.0 -5.2 79 6 13 24.1 101.74   -6 LegendNANA
04:00 Legend Double Dagger -1.9 -4.9 80 6 15 24.1 101.70   -7 Cloudy
05:00 Legend Double Dagger -1.9 -4.7 81 7 16 24.1 101.64   -7 LegendNANA
06:00 Legend Double Dagger -1.2 -4.6 78 8 15 24.1 101.62   -6 LegendNANA
07:00 Legend Double Dagger -0.8 -4.3 77 8 16 24.1 101.61   -6 Mostly Cloudy
08:00 Legend Double Dagger -0.4 -4.1 76 8 22 24.1 101.60   -6 LegendNANA
09:00 Legend Double Dagger 0.6 -3.7 73 8 27 24.1 101.51     LegendNANA
10:00 Legend Double Dagger 1.4 -3.3 71 8 27 24.1 101.43     Mostly Cloudy
11:00 Legend Double Dagger 1.4 -3.3 71 8 21 24.1 101.32     LegendNANA
12:00 Legend Double Dagger 1.8 -3.1 70 8 25 24.1 101.18     LegendNANA
13:00 Legend Double Dagger 2.1 -2.6 71 7 21 24.1 101.04     Cloudy
14:00 Legend Double Dagger 2.6 -2.1 71 7 27 24.1 100.92     Snow
15:00 Legend Double Dagger 1.8 -0.8 83 7 26 6.4 100.82     Snow Showers,Snow Pellets
16:00 Legend Double Dagger 0.7 0.0 95 9 26 6.4 100.75     Snow
17:00 Legend Double Dagger 0.2 -0.1 98 7 23 1.0 100.66     Snow
18:00 Legend Double Dagger 0.3 -0.1 97 7 30 2.4 100.58     Snow
19:00 Legend Double Dagger 0.4 0.0 97 7 26 2.4 100.51     Snow,Fog
20:00 Legend Double Dagger 0.4 0.0 97 7 24 2.4 100.44     Snow,Fog
21:00 Legend Double Dagger 0.3 -0.1 97 7 27 2.4 100.36     Snow,Fog
22:00 Legend Double Dagger 0.4 0.1 98 7 24 3.2 100.30     Snow,Fog
23:00 Legend Double Dagger 0.4 0.1 98 7 25 3.2 100.23     Snow,Fog

Notes on Data Quality.

Legend

  • E = Estimated
  • M = Missing
  • NA = Not Available
  • ‡ = Partner data that is not subject to review by the National Climate Archives
Date modified: